Flag for USA

Past Weather in South Washington Street Historic District, Georgia, USA — Yesterday and Last 2 Weeks

Now
35 °F

Sunny.


Feels Like: 31 °F
Forecast: 41 / 25 °F
Wind: 5 mph from North

Location: Clemson-Oconee County Airport

Current Time: Jan 21, 2019 at 1:26:04 pm

Latest Report: Jan 21, 2019 at 12:54 pm


Visibility: 10 mi

Pressure: 30.42 "Hg

Humidity: 35%

Dew Point: 10 °F

Location of South Washington Street Historic DistrictLocation

Past Weather in South Washington Street Historic District — Graph

°F

South Washington Street Historic District Temperature Yesterday

Maximum temperature yesterday: 53 °F (at 12:29 am)
Minimum temperature yesterday: 30 °F (at 10:54 pm)
Average temperature yesterday: 41 °F

High & Low Weather Summary for the Past Weeks

 TemperatureHumidityPressure
High65 °F (Jan 6, 2:54 pm)100% (Jan 13, 2:54 am)30.45 "Hg (Jan 13, 2:54 am)
Low22 °F (Jan 21, 6:54 am)18% (Jan 9, 12:54 pm)29.50 "Hg (Jan 20, 12:54 am)
Average43 °F77%30.13 "Hg
* Reported Jan 6 11:54 am — Jan 21 11:54 am, South Washington Street Historic District. Weather by CustomWeather, © 2019

Note: Actual official high and low records may vary slightly from our data, if they occured in-between our weather recording intervals... More about our weather records

Advertising

South Washington Street Historic District Weather History for the Previous 24 Hours

Scroll right to see more
 ConditionsComfort  
Time TempWeatherWind HumidityBarometerVisibility
11:54 am
Mon, Jan 21
33 °FSunny.No wind40%30.44 "Hg10 mi
10:54 am30 °FSunny.No wind45%30.44 "Hg10 mi
9:54 am27 °FSunny.3 mph51%30.41 "Hg10 mi
8:54 am24 °FSunny.5 mph55%30.37 "Hg10 mi
7:54 am22 °FSunny.5 mph52%30.34 "Hg10 mi
6:54 am22 °FClear.7 mph57%30.29 "Hg10 mi
5:54 am24 °FClear.5 mph52%30.25 "Hg10 mi
4:54 am26 °FClear.6 mph48%30.22 "Hg10 mi
3:54 am26 °FClear.5 mph63%30.19 "Hg10 mi
2:54 am27 °FClear.No wind55%30.16 "Hg10 mi
1:54 am27 °FClear.8 mph55%30.14 "Hg10 mi
12:54 am29 °FClear.9 mph49%30.12 "Hg10 mi
11:54 pm
Sun, Jan 20
30 °FClear.10 mph45%30.10 "Hg10 mi
10:54 pm30 °FClear.9 mph51%30.08 "Hg10 mi
9:54 pm32 °FClear.9 mph41%30.07 "Hg10 mi
8:54 pm33 °FClear.9 mph40%30.06 "Hg10 mi
7:54 pm35 °FClear.9 mph35%30.03 "Hg10 mi
6:54 pm37 °FClear.14 mph28%30.00 "Hg10 mi
5:54 pm38 °FClear.16 mph33%29.96 "Hg10 mi
4:54 pm42 °FSunny.10 mph33%29.92 "Hg10 mi
3:54 pm44 °FSunny.14 mph32%29.89 "Hg10 mi
2:54 pm44 °FSunny.21 mph38%29.85 "Hg10 mi
1:54 pm45 °FSunny.14 mph44%29.82 "Hg10 mi
Weather by CustomWeather, © 2019

See weather overview